Zurück zum Katalog

STARLINK-31570

AktivKommunikationVLEO
NORAD 59324·PAYLOAD·🇺🇸 United States

Gestartet Mar 25, 2024 von Cape Canaveral Space Force Station

Loading…

Nächste Überflüge (nächste 24 Stunden)

TLE

AktuellSource: CelesTrak SupGP

Epoche: Sep 14, 2026, 21:13 UTC

1 59324C 24057E   26257.88451389  .00010923  00000+0  39574-3 0  2571
2 59324  43.0004 198.9947 0001241 262.7493 305.2229 15.27563683    14

Verfolge STARLINK-31570 in Echtzeit mit AllMySat

Download on the App Store